Location: Campillo
(40.8621°N, 4.2488°W)
Time: 12:21:17
(UTC+00:00)

ARIANE 5 R/B - Pass Details

Date: 11 May 2021
Orbit: 620 x 656 km, 98.1° (Epoch: 09 June)

Event Time Altitude Azimuth Distance (km) Brightness Sun altitude
Exits shadow 20:52:22 21° 101° (E) 1,406 3.9 -14.8°
Maximum altitude 20:53:56 26° 68° (ENE) 1,231 3.8 -15.1°
Drops below altitude 10° 20:57:31 10° 12° (NNE) 1,995 5.6 -15.6°
Sets 20:59:59 0° 360° (N) 2,907 6.7 -15.9°
